Regional Weather Roundup
Issued by NWS

Home | Current Version | Previous Version | Graphics & Text | Print | Product List | Glossary On
Versions: 1 2 3 4 5 6 7 8 9 10 11 12 13 14 15 16 17 18 19 20 21 22 23 24 25 26 27 28 29 30 31 32 33 34 35 36 37 38 39 40 41 42 43 44 45 46 47 48 49 50
000
ASUS43 KFSD 292110
RWRSD

WEATHER ROUNDUP FOR SOUTH DAKOTA
NATIONAL WEATHER SERVICE SIOUX FALLS SD
300 PM CST THU JAN 29 2015

NOTE: "FAIR" INDICATES FEW OR NO CLOUDS BELOW 12,000 FEET WITH NO
SIGNIFICANT WEATHER AND/OR OBSTRUCTIONS TO VISIBILITY.


SDZ001>005-009-010-012>017-292200-
NORTHWEST AND NORTH CENTRAL SOUTH DAKOTA

CITY           SKY/WX    TMP DP  RH WIND       PRES   REMARKS
BUFFALO          N/A     43   9  24 SW7       30.33F
FAITH            N/A     41  15  35 NW5       30.41F
MOBRIDGE       SUNNY     36  21  54 N12       30.43F
$$

SDZ012>016-024>037-041>051-057-063-072>074-292200-
SOUTHWEST AND SOUTH CENTRAL SOUTH DAKOTA

CITY           SKY/WX    TMP DP  RH WIND       PRES   REMARKS
RAPID CTY ARPT SUNNY     46  12  25 NE3       30.41F
PIERRE         SUNNY     39  21  48 NW13      30.45S
CUSTER         SUNNY     40   7  25 SE6       30.34F
ELLSWORTH AFB  SUNNY     45  14  28 VRB5      30.40F
PHILIP         SUNNY     45  19  35 N10       30.44F
PINE RIDGE     SUNNY     45  10  24 NW5       30.42F
WINNER         FAIR      42  23  46 N13       30.44F
$$

SDZ004>011-016>023-039-040-292200-
NORTHEAST SOUTH DAKOTA

CITY           SKY/WX    TMP DP  RH WIND       PRES   REMARKS
ABERDEEN       CLOUDY    26  18  71 N15       30.49S WCI  14
WATERTOWN      CLOUDY    23  17  78 NW18G24   30.42R WCI   9
SISSETON         N/A     22  16  78 N23G29    30.46R WCI   6
$$

SDZ017-020-022-023-036>040-048>070-292200-
SOUTHEAST SOUTH DAKOTA

CITY           SKY/WX    TMP DP  RH WIND       PRES   REMARKS
SIOUX FALLS    CLOUDY    30  21  69 NW21G30   30.43R WCI  17
HURON          CLOUDY    28  20  71 N17       30.48R WCI  16
CHAMBERLAIN    SUNNY     36  23  59 N15G21    30.46S
MITCHELL       CLOUDY    33  22  63 NW17      30.48R WCI  22
YANKTON        PTSUNNY   36  21  55 NW21G28   30.45F
$$

ABBREVIATIONS USED IN REMARKS
   TC - TEMPERATURE IN CELSIUS
  WCI - WIND CHILL INDEX
   HX - HEAT INDEX
  VSB - VISIBILITY




USA.gov is the U.S. government's official web portal to all federal, state and local government web resources and services.